[[{"header":{"parameterUnit":"m.s-1","parameterCategory":2,"la1":30.2991,"la2":30.254,"lo1":-89.0895,"lo2":-89.0444,"dy":0.0017,"dx":0.0017,"nx":28,"ny":28,"refTime":"2024-06-24T09:00:00:Z","depth":"0","parameterNumber":2,"parameterNumberName":"U-component_of_CURRENTS"},"data":[0,0,0,0,0,0,0,0,0,0,0,0,0,0,0,0,0,0,0,0,0,0,0,0,0,0,0,0,0,0,0,0,0,0,0,0,0,0,0,0,0,0,0,0,0,0,0,0,0,0,0,0,0,0,0,0,0,0,0.2578,0.2584,0,0.3053,0.3057,0.3061,0.3198,0.3197,0.3195,0.3194,0.3336,0.3341,0.3346,0,0,0,0,0,0,0,0,0,0,0,0,0,0.2045,0.2051,0.2578,0.2585,0.2592,0.3052,0.3057,0.3063,0.3198,0.3196,0.3195,0.3193,0.3334,0.334,0.3346,0,0,0,0,0,0,0,0,0,0,0,0,0,0.2361,0.2053,0.2577,0.2724,0.2743,0.3051,0.3057,0.3064,0.3199,0.3196,0.3194,0.3192,0.3332,0.3339,0.3347,0.3437,0,0,0.337,0.3374,0,0,0,0,0,0,0,0,0.2342,0.2378,0.2696,0.2715,0.2737,0.3075,0.2923,0.3177,0.3199,0.3012,0.3194,0.3191,0.3227,0.3244,0.3325,0.3444,0.345,0.3371,0.3376,0.3379,0.3381,0,0,0,0,0,0,0,0.232,0.236,0.2753,0.2704,0.2729,0.2856,0.2894,0.2973,0.311,0.3029,0.3043,0.3116,0.3234,0.3317,0.3328,0.3452,0.3371,0.3378,0.3382,0.3385,0.36,0.3601,0,0,0,0,0,0,0.2277,0.2339,0.2738,0.2769,0.2544,0.2867,0.291,0.2958,0.3117,0.3146,0.3118,0.3121,0.3305,0.3319,0.3333,0.3381,0.3379,0.3386,0.339,0.3599,0.36,0.3601,0,0,0,0,0,0,0.2263,0.2307,0.2719,0.2576,0.2638,0.2877,0.2932,0.2969,0.3053,0.3191,0.3209,0.3164,0.3304,0.3322,0.3404,0.3389,0.3389,0.3396,0.3598,0.3599,0.3601,0.3518,0,0,0,0,0,0,0.2245,0.2298,0.2309,0.2572,0.2646,0.2912,0.2937,0.298,0.3108,0.3117,0.3237,0.3249,0.3304,0.3393,0.3412,0.3399,0.3402,0.3596,0.3598,0.36,0.352,0.3517,0.3515,0,0,0,0,0,0.2223,0.2259,0.2305,0.2355,0.2654,0.2917,0.2966,0.312,0.3112,0.3177,0.3234,0.3245,0.3418,0.3401,0.3423,0.3412,0.3595,0.3598,0.36,0.3521,0.3518,0.3515,0,0,0,0,0,0,0.2062,0.2287,0.234,0.2447,0.2667,0.2944,0.3037,0.3118,0.3226,0.3201,0.3281,0.3301,0.3365,0.3412,0.3391,0.3482,0.35,0.3507,0.3432,0.343,0.3428,0.3363,0.3409,0,0,0,0,0,0.2025,0.2089,0.2355,0.2446,0.2555,0.2782,0.2899,0.3001,0.315,0.3198,0.3279,0.3341,0.3401,0.343,0.3509,0.3568,0.3504,0.3571,0.3569,0.3566,0.3531,0.3451,0.3435,0.361,0.361,0.3609,0,0,0.1992,0.2126,0.2165,0.2414,0.2592,0.2752,0.2845,0.3029,0.3105,0.3189,0.3281,0.3347,0.3421,0.3488,0.3516,0.3516,0.3474,0.3569,0.3566,0.3531,0.3451,0.3433,0.3417,0.3611,0.3611,0.3611,0,0,0.1985,0.2084,0.2148,0.2333,0.2591,0.2727,0.277,0.303,0.3086,0.3209,0.3256,0.3311,0.3441,0.3481,0.3512,0.3545,0.3473,0.3565,0.3488,0.3412,0.3394,0.3379,0.3215,0.3185,0.3551,0.3551,0.3551,0,0.1942,0.2052,0.222,0.2369,0.2498,0.27,0.2817,0.2936,0.3164,0.318,0.3216,0.3356,0.343,0.3458,0.347,0.3532,0.3437,0.3487,0.3399,0.3383,0.3368,0.3205,0.3173,0.3547,0.3548,0.3548,0.3549,0,0.2011,0.2112,0.2194,0.2397,0.2547,0.2699,0.2893,0.2978,0.304,0.3136,0.3191,0.33,0.3361,0.3401,0.3447,0.3389,0.3334,0.3406,0.3385,0.3343,0.3176,0.3144,0.3542,0.3544,0.3545,0.3546,0,0,0.1914,0.2168,0.2202,0.2284,0.2562,0.2698,0.2792,0.2934,0.2942,0.3094,0.3083,0.3212,0.3237,0.3272,0.3331,0.3276,0.3095,0.3276,0.3273,0.3071,0.2821,0.2722,0.2677,0.3129,0.3125,0.3122,0.2721,0,0.1929,0.2104,0.2231,0.2397,0.2522,0.269,0.2755,0.2881,0.2956,0.2994,0.3057,0.3093,0.3196,0.3192,0.3159,0.3138,0.3016,0.3191,0.2927,0.2917,0.2803,0.2641,0.2647,0.2286,0.269,0.2684,0.268,0,0.198,0.2081,0.2198,0.2365,0.2429,0.2518,0.2616,0.2709,0.2791,0.2831,0.2869,0.2924,0.2901,0.2982,0.2844,0.2937,0.2841,0.2806,0.2791,0.2703,0.2761,0.2411,0.2212,0.2218,0.2631,0.2635,0.2638,0,0.1849,0.2069,0.2108,0.2203,0.2413,0.2432,0.252,0.2634,0.2669,0.2705,0.2693,0.271,0.2676,0.2612,0.2579,0.267,0.2365,0.2498,0.2289,0.2278,0.2233,0.2226,0.1977,0.2306,0.2307,0.2308,0.2309,0,0.1839,0.1908,0.2041,0.2102,0.2134,0.2314,0.2332,0.2419,0.2481,0.248,0.2577,0.2534,0.2574,0.2458,0.2438,0.2227,0.2239,0.2188,0.2156,0.2202,0.2197,0.2168,0.2192,0.2293,0.2297,0.2299,0.2302,0,0.1752,0.1838,0.1916,0.2051,0.209,0.2118,0.2257,0.227,0.2327,0.231,0.23,0.2324,0.2179,0.216,0.2009,0.1998,0.1786,0.1764,0.1768,0.1744,0.1614,0.1634,0.1202,0.1174,0.1451,0.1446,0.1441,0,0.1731,0.175,0.1848,0.1868,0.1932,0.2005,0.2051,0.2178,0.2194,0.2184,0.2137,0.2001,0.193,0.1656,0.1611,0.1442,0.1494,0.1303,0.1519,0.1509,0.1509,0.1496,0.1509,0.1391,0.1386,0.1383,0.138,0,0.1695,0.1693,0.1737,0.1758,0.1797,0.1857,0.1924,0.1915,0.2011,0.1971,0.1867,0.1792,0.1585,0.1456,0.1253,0.1187,0.1278,0.1221,0.1232,0.1409,0.1353,0.1349,0.1702,0.1349,0.1352,0.1354,0.1356,0.1357,0.1646,0.1637,0.1651,0.1668,0.1693,0.1693,0.1702,0.1735,0.1713,0.1651,0.1636,0.1513,0.1429,0.1193,0.1078,0.0941,0.0975,0.0972,0.0969,0.0934,0.0987,0.1209,0.0844,0.0844,0.0844,0.0845,0.0845,0,0.1606,0.159,0.1585,0.1581,0.1551,0.1606,0.1608,0.1586,0.1507,0.1475,0.1393,0.1285,0.114,0.1042,0.0889,0.0781,0.0788,0.0722,0.0779,0.0794,0.1,0.1094,0.0744,0.0744,0.0744,0.0744,0.0744,0.0744,0.1587,0.1552,0.1533,0.1456,0.1442,0.1395,0.1376,0.1319,0.1293,0.1179,0.1117,0.1101,0.1045,0.0895,0.0738,0.0688,0.0664,0.0542,0.0535,0.0816,0.0845,0.0873,0.0969,0.0598,0.0598,0.0382,0.038,0.0379]},{"header":{"parameterUnit":"m.s-1","parameterCategory":2,"la1":30.2991,"la2":30.254,"lo1":-89.0895,"lo2":-89.0444,"dy":0.0017,"dx":0.0017,"nx":28,"ny":28,"refTime":"2024-06-24T09:00:00:Z","depth":"0","parameterNumber":3,"parameterNumberName":"V-component_of_CURRENTS"},"data":[0,0,0,0,0,0,0,0,0,0,0,0,0,0,0,0,0,0,0,0,0,0,0,0,0,0,0,0,0,0,0,0,0,0,0,0,0,0,0,0,0,0,0,0,0,0,0,0,0,0,0,0,0,0,0,0,0,0,0.0084,0.0082,0,-0.0041,-0.0042,-0.0042,-0.0109,-0.011,-0.011,-0.0111,-0.0057,-0.0055,-0.0053,0,0,0,0,0,0,0,0,0,0,0,0,0,0.0187,0.0186,0.0084,0.0082,0.008,-0.004,-0.0042,-0.0043,-0.0109,-0.011,-0.0111,-0.0111,-0.0058,-0.0056,-0.0053,0,0,0,0,0,0,0,0,0,0,0,0,0,0.0116,0.0186,0.0085,0.0028,0.0021,-0.004,-0.0042,-0.0043,-0.0109,-0.011,-0.0111,-0.0112,-0.0059,-0.0056,-0.0053,-0.0014,0,0,-0.0043,-0.0042,0,0,0,0,0,0,0,0,0.012,0.0113,0.0038,0.0032,0.0024,-0.0066,0.0014,-0.0026,-0.0109,-0.0053,-0.0111,-0.0112,-0.0046,-0.0045,-0.006,-0.0011,-0.0009,-0.0043,-0.0041,-0.004,-0.0039,0,0,0,0,0,0,0,0.0125,0.0117,0.0041,0.0036,0.0027,-0.0018,-0.0028,0.0005,-0.0035,-0.0058,-0.0065,-0.0088,-0.0048,-0.0063,-0.0059,-0.0008,-0.0043,-0.004,-0.0038,-0.0037,0.0139,0.0142,0,0,0,0,0,0,0.0134,0.0123,0.0045,0.0036,0.0064,-0.0019,-0.003,-0.0031,-0.0039,-0.0045,-0.0087,-0.009,-0.0068,-0.0062,-0.0057,0.0042,-0.004,-0.0037,-0.0035,0.0136,0.014,0.0143,0,0,0,0,0,0,0.0137,0.0129,0.005,0.007,0.0056,-0.002,-0.0021,-0.0033,-0.0046,-0.0064,-0.0065,-0.0088,-0.0068,-0.0061,-0.0013,0.0042,-0.0036,-0.0033,0.0133,0.0137,0.0141,0.0207,0,0,0,0,0,0,0.0141,0.0132,0.0135,0.0072,0.0055,0.0025,-0.0021,-0.0035,-0.0062,-0.0068,-0.0064,-0.0062,-0.0069,-0.0018,-0.001,0.0044,-0.003,0.0129,0.0135,0.014,0.0201,0.0213,0.0223,0,0,0,0,0,0.0146,0.0151,0.0137,0.0127,0.0063,0.0026,0.0015,-0.0041,-0.0061,-0.0057,-0.0051,-0.0062,0.0022,-0.0013,-0.0005,0.0052,0.0127,0.0133,0.0139,0.0196,0.021,0.0222,0,0,0,0,0,0,0.0183,0.0142,0.0126,0.0115,0.008,0.0012,0.0001,-0.003,-0.0027,-0.0021,-0.0034,-0.0028,0.0034,0.0041,0.0002,0.0121,0.0077,0.0085,0.0117,0.0131,0.0142,0.0157,-0.0028,0,0,0,0,0,0.0198,0.02,0.0148,0.0139,0.0129,0.0073,0.0049,0.0021,0.0005,0.0002,0.0005,0.0029,0.0068,0.0094,0.0121,0.0187,0.0175,0.0234,0.0245,0.0254,0.0276,0.0297,0.0311,0.0163,0.0163,0.0163,0,0,0.0204,0.0183,0.018,0.0149,0.0119,0.0122,0.0059,0.0038,0.0056,0.0017,0.0057,0.0064,0.0093,0.0158,0.019,0.0171,0.0287,0.0262,0.0269,0.0286,0.0305,0.0319,0.0331,0.0168,0.0167,0.0166,0,0,0.0227,0.021,0.0226,0.0211,0.0178,0.0155,0.0157,0.0115,0.0114,0.0146,0.0134,0.018,0.0218,0.0258,0.0282,0.038,0.0338,0.0386,0.0461,0.0481,0.0493,0.0503,0.0485,0.0493,0.0398,0.0398,0.0398,0,0.0235,0.0254,0.0221,0.0236,0.0234,0.0182,0.0207,0.0202,0.0184,0.0216,0.0175,0.0261,0.0277,0.0381,0.0405,0.0408,0.0384,0.0402,0.0493,0.0503,0.0512,0.0491,0.0499,0.0402,0.0401,0.0401,0.0401,0,0.0275,0.0292,0.03,0.0318,0.0317,0.0325,0.0317,0.034,0.0332,0.0331,0.041,0.0416,0.0471,0.0485,0.0471,0.0565,0.0513,0.0492,0.045,0.053,0.0504,0.0511,0.0407,0.0406,0.0405,0.0404,0,0,0.0285,0.0323,0.0327,0.0359,0.0366,0.037,0.0431,0.0474,0.053,0.0523,0.0594,0.0652,0.0638,0.0667,0.0658,0.0676,0.0707,0.0609,0.0608,0.0576,0.0712,0.0683,0.0687,0.0682,0.0684,0.0686,0.0658,0,0.0326,0.0384,0.0397,0.0462,0.0493,0.0501,0.0564,0.0604,0.063,0.0685,0.0708,0.076,0.0712,0.0732,0.075,0.0717,0.0732,0.0715,0.0655,0.0653,0.0606,0.0698,0.0734,0.0714,0.0664,0.0666,0.0666,0,0.0363,0.0401,0.0475,0.0557,0.0575,0.0613,0.0715,0.0764,0.0842,0.0864,0.0916,0.0903,0.0952,0.0878,0.0878,0.0855,0.0801,0.0761,0.0758,0.072,0.064,0.0634,0.0728,0.0761,0.0677,0.0676,0.0675,0,0.0385,0.0459,0.0526,0.0546,0.0627,0.0684,0.0734,0.0824,0.0889,0.0969,0.1,0.1047,0.1045,0.1013,0.0917,0.0896,0.0876,0.0842,0.0772,0.0766,0.0786,0.0779,0.0899,0.0855,0.0855,0.0855,0.0855,0,0.0423,0.0475,0.0542,0.0575,0.0675,0.0721,0.0838,0.0899,0.0994,0.1074,0.1082,0.1119,0.107,0.1038,0.0961,0.0884,0.0915,0.0811,0.0779,0.0807,0.0804,0.0821,0.0814,0.0854,0.0854,0.0854,0.0854,0,0.0435,0.0476,0.0555,0.065,0.0685,0.0754,0.0878,0.0966,0.1037,0.1132,0.1151,0.1172,0.1123,0.1057,0.0988,0.0932,0.0887,0.0829,0.0844,0.0816,0.0797,0.0791,0.0833,0.0894,0.0777,0.0777,0.0776,0,0.045,0.0488,0.0592,0.0645,0.0689,0.0792,0.0876,0.0978,0.1063,0.1153,0.1195,0.1176,0.116,0.1052,0.0962,0.086,0.0858,0.0826,0.0824,0.0836,0.0805,0.0786,0.0834,0.0859,0.086,0.086,0.086,0,0.0475,0.0506,0.0569,0.0672,0.0758,0.0864,0.0976,0.1042,0.1156,0.121,0.1255,0.1243,0.1148,0.1066,0.0935,0.0872,0.0886,0.0826,0.0862,0.0918,0.0886,0.0914,0.0802,0.0862,0.0862,0.0862,0.0862,0.0862,0.0489,0.0531,0.0609,0.0709,0.0805,0.092,0.1001,0.11,0.12,0.1288,0.1279,0.1277,0.1194,0.1023,0.0949,0.0892,0.0872,0.0882,0.0878,0.0861,0.093,0.0805,0.0813,0.0813,0.0813,0.0812,0.0812,0,0.0512,0.0562,0.0648,0.0764,0.086,0.0917,0.1063,0.1138,0.1222,0.1305,0.1329,0.1327,0.1201,0.1106,0.0996,0.0967,0.0985,0.0957,0.0979,0.1033,0.0951,0.0969,0.0986,0.0986,0.0986,0.0986,0.0986,0.0986,0.0526,0.0599,0.0641,0.0784,0.0867,0.0996,0.1074,0.1167,0.1258,0.136,0.1414,0.1455,0.1428,0.112,0.1038,0.1038,0.1105,0.104,0.108,0.1047,0.1041,0.1036,0.1056,0.1091,0.1091,0.1208,0.1209,0.121]}],[{"header":{"parameterUnit":"m.s-1","parameterCategory":2,"la1":30.2991,"la2":30.254,"lo1":-89.0895,"lo2":-89.0444,"dy":0.0017,"dx":0.0017,"nx":28,"ny":28,"refTime":"2024-06-24T09:00:00:Z","depth":"2","parameterNumber":2,"parameterNumberName":"U-component_of_CURRENTS"},"data":[0,0,0,0,0,0,0,0,0,0,0,0,0,0,0,0,0,0,0,0,0,0,0,0,0,0,0,0,0,0,0,0,0,0,0,0,0,0,0,0,0,0,0,0,0,0,0,0,0,0,0,0,0,0,0,0,0,0,0.1805,0.1806,0,0.1886,0.1887,0.1887,0.1932,0.1933,0.1933,0.1934,0.2094,0.2097,0.2101,0,0,0,0,0,0,0,0,0,0,0,0,0,0.1669,0.1672,0.1805,0.1806,0.1807,0.1886,0.1887,0.1887,0.1932,0.1933,0.1933,0.1934,0.2092,0.2097,0.2101,0,0,0,0,0,0,0,0,0,0,0,0,0,0.1734,0.1672,0.1804,0.1842,0.1846,0.1886,0.1887,0.1888,0.1932,0.1933,0.1933,0.1934,0.2091,0.2096,0.2102,0.2123,0,0,0.212,0.2122,0,0,0,0,0,0,0,0,0.173,0.1738,0.1835,0.1839,0.1845,0.1903,0.1898,0.1972,0.1932,0.1895,0.1934,0.1934,0.2039,0.2049,0.2056,0.2131,0.2138,0.212,0.2124,0.2126,0.2128,0,0,0,0,0,0,0,0.1725,0.1735,0.1833,0.1837,0.1842,0.1848,0.1858,0.1911,0.1961,0.1899,0.1903,0.1918,0.2042,0.205,0.2061,0.214,0.212,0.2125,0.2128,0.2131,0.25,0.2506,0,0,0,0,0,0,0.1724,0.1731,0.1831,0.1836,0.1792,0.1851,0.1861,0.188,0.1959,0.1972,0.1917,0.192,0.204,0.2054,0.2067,0.2255,0.2126,0.2131,0.2135,0.2493,0.2501,0.2508,0,0,0,0,0,0,0.172,0.1732,0.1827,0.1788,0.1801,0.1853,0.1874,0.1882,0.1931,0.1973,0.1987,0.1963,0.2041,0.2059,0.2176,0.2256,0.2134,0.2139,0.2486,0.2496,0.2505,0.2531,0,0,0,0,0,0,0.1716,0.173,0.1747,0.1788,0.1803,0.1889,0.1874,0.1883,0.1938,0.1943,0.2016,0.2029,0.2043,0.2168,0.2182,0.2261,0.2144,0.2478,0.249,0.2502,0.2522,0.254,0.2556,0,0,0,0,0,0.1711,0.175,0.1747,0.176,0.1824,0.1892,0.1901,0.1936,0.194,0.1978,0.2042,0.2028,0.2256,0.2176,0.2192,0.2274,0.2472,0.2487,0.2501,0.2514,0.2537,0.2555,0,0,0,0,0,0,0.1704,0.176,0.1758,0.1811,0.1858,0.1902,0.1966,0.1959,0.2033,0.2059,0.208,0.21,0.2249,0.2273,0.2185,0.2432,0.2374,0.2392,0.238,0.2401,0.2418,0.2352,0.2148,0,0,0,0,0,0.1706,0.1745,0.1796,0.1836,0.1893,0.1928,0.1962,0.1975,0.204,0.2073,0.2139,0.2228,0.2314,0.2362,0.2454,0.2557,0.2456,0.2641,0.2657,0.267,0.2639,0.2546,0.2546,0.2555,0.2555,0.2555,0,0,0.1698,0.1746,0.1758,0.1836,0.1901,0.1967,0.1955,0.2037,0.2083,0.2082,0.2224,0.2294,0.2364,0.2498,0.2568,0.2524,0.2621,0.2689,0.2698,0.2658,0.256,0.2557,0.2554,0.2565,0.2563,0.2561,0,0,0.1714,0.1785,0.1824,0.1893,0.1989,0.2024,0.2056,0.2144,0.2201,0.2314,0.2344,0.2446,0.26,0.2642,0.268,0.2848,0.2723,0.2921,0.2926,0.2838,0.2831,0.2825,0.2672,0.2652,0.2914,0.2914,0.2914,0,0.1705,0.1762,0.1845,0.1927,0.1988,0.2059,0.2117,0.2193,0.2294,0.2342,0.2389,0.2581,0.2659,0.2737,0.282,0.2876,0.2769,0.282,0.2842,0.2834,0.2826,0.2672,0.2648,0.2917,0.2916,0.2916,0.2916,0,0.1746,0.1812,0.1882,0.1993,0.2065,0.2153,0.226,0.2344,0.2431,0.2484,0.263,0.272,0.2795,0.2886,0.2905,0.2928,0.285,0.2867,0.2747,0.2824,0.2661,0.2635,0.2921,0.292,0.2919,0.2918,0,0,0.1688,0.1859,0.1884,0.1935,0.2113,0.2163,0.2296,0.2402,0.2442,0.2606,0.263,0.2848,0.286,0.2905,0.294,0.2902,0.2788,0.2862,0.2856,0.2631,0.251,0.2408,0.2369,0.2774,0.2771,0.2769,0.2403,0,0.1701,0.1802,0.1898,0.2009,0.2092,0.2214,0.2317,0.242,0.2519,0.258,0.2689,0.276,0.2876,0.2873,0.2869,0.2807,0.2727,0.288,0.2539,0.2527,0.2361,0.2341,0.2293,0.196,0.2377,0.2373,0.237,0,0.1721,0.1786,0.1866,0.2008,0.2062,0.2123,0.2249,0.234,0.2459,0.2531,0.26,0.2652,0.2666,0.2728,0.2613,0.2689,0.2599,0.255,0.2534,0.24,0.2379,0.1967,0.1897,0.2326,0.2329,0.2333,0.2336,0,0.1628,0.1778,0.1819,0.1882,0.2046,0.2092,0.2179,0.2318,0.2376,0.2439,0.2432,0.249,0.245,0.2397,0.2362,0.2442,0.216,0.2245,0.2055,0.2043,0.1917,0.19,0.2103,0.2104,0.2105,0.2106,0.2107,0,0.1628,0.1677,0.1769,0.1809,0.1868,0.2009,0.2063,0.2165,0.2232,0.2259,0.2363,0.2318,0.2361,0.2246,0.2231,0.2034,0.2038,0.2003,0.1938,0.1933,0.1923,0.22,0.2216,0.2092,0.2095,0.2097,0.21,0,0.1561,0.1624,0.1679,0.1795,0.1832,0.1872,0.1992,0.2019,0.2093,0.2078,0.2073,0.2112,0.1982,0.1966,0.1819,0.1812,0.1669,0.1592,0.1556,0.1496,0.1634,0.1658,0.1317,0.131,0.1305,0.13,0.1296,0,0.1544,0.1555,0.163,0.1647,0.1706,0.177,0.1825,0.1946,0.1955,0.1952,0.1913,0.1792,0.1737,0.1475,0.1429,0.1274,0.1409,0.1107,0.1304,0.1579,0.155,0.1584,0.1614,0.1126,0.1121,0.1117,0.1114,0,0.1513,0.1519,0.155,0.1562,0.1602,0.1639,0.1702,0.1682,0.178,0.1742,0.1654,0.1587,0.1398,0.1252,0.1069,0.1002,0.1151,0.1015,0.1242,0.1369,0.138,0.136,0.1399,0.1077,0.1081,0.1083,0.1085,0.1087,0.148,0.1472,0.148,0.1493,0.1513,0.1504,0.1502,0.152,0.1496,0.1441,0.1426,0.1301,0.1244,0.0971,0.0838,0.0731,0.0848,0.0837,0.0857,0.0881,0.096,0.0965,0.0592,0.0593,0.0594,0.0595,0.0595,0,0.1443,0.143,0.1423,0.1415,0.1383,0.1432,0.1421,0.1385,0.1309,0.1269,0.1193,0.1007,0.0868,0.0787,0.0601,0.0525,0.06,0.0468,0.0623,0.0658,0.0689,0.077,0.0345,0.0344,0.0343,0.0342,0,0,0.1426,0.1392,0.1372,0.1295,0.1283,0.1232,0.1211,0.1145,0.1102,0.0987,0.0914,0.0921,0.0855,0.0661,0.0568,0.0447,0.0565,0.0402,0.0611,0.0838,0.087,0.0903,0.1064,0,0,0,0,0]},{"header":{"parameterUnit":"m.s-1","parameterCategory":2,"la1":30.2991,"la2":30.254,"lo1":-89.0895,"lo2":-89.0444,"dy":0.0017,"dx":0.0017,"nx":28,"ny":28,"refTime":"2024-06-24T09:00:00:Z","depth":"2","parameterNumber":3,"parameterNumberName":"V-component_of_CURRENTS"},"data":[0,0,0,0,0,0,0,0,0,0,0,0,0,0,0,0,0,0,0,0,0,0,0,0,0,0,0,0,0,0,0,0,0,0,0,0,0,0,0,0,0,0,0,0,0,0,0,0,0,0,0,0,0,0,0,0,0,0,-0.0001,-0.0004,0,-0.0122,-0.0122,-0.0123,-0.018,-0.0181,-0.0182,-0.0183,-0.0134,-0.0132,-0.013,0,0,0,0,0,0,0,0,0,0,0,0,0,0.0128,0.0127,-0.0001,-0.0004,-0.0006,-0.0122,-0.0122,-0.0123,-0.018,-0.0181,-0.0183,-0.0184,-0.0135,-0.0132,-0.013,0,0,0,0,0,0,0,0,0,0,0,0,0,0.0058,0.0127,-0.0001,-0.0058,-0.0065,-0.0122,-0.0122,-0.0123,-0.018,-0.0181,-0.0183,-0.0184,-0.0136,-0.0133,-0.0129,-0.0075,0,0,-0.0119,-0.0117,0,0,0,0,0,0,0,0,0.0062,0.0055,-0.0047,-0.0054,-0.0063,-0.0149,-0.006,-0.0103,-0.0179,-0.0123,-0.0183,-0.0185,-0.013,-0.0127,-0.0131,-0.0073,-0.0071,-0.0118,-0.0116,-0.0115,-0.0114,0,0,0,0,0,0,0,0.0067,0.0059,-0.0036,-0.005,-0.006,-0.0097,-0.0106,-0.0068,-0.0103,-0.0128,-0.0136,-0.0168,-0.0132,-0.0134,-0.013,-0.007,-0.0118,-0.0115,-0.0113,-0.0112,0.0031,0.0033,0,0,0,0,0,0,0.0062,0.0065,-0.0033,-0.0041,-0.0017,-0.0098,-0.0109,-0.0109,-0.0108,-0.0114,-0.0167,-0.0171,-0.014,-0.0134,-0.0128,-0.0033,-0.0115,-0.0111,-0.0109,0.003,0.0032,0.0034,0,0,0,0,0,0,0.0066,0.0056,-0.0028,-0.0003,-0.0018,-0.01,-0.0099,-0.0111,-0.0127,-0.0141,-0.0142,-0.0174,-0.0141,-0.0133,-0.0099,-0.0032,-0.011,-0.0107,0.0028,0.003,0.0033,0.014,0,0,0,0,0,0,0.0071,0.0059,0.0061,-0.0002,-0.002,-0.0057,-0.01,-0.0113,-0.015,-0.0156,-0.0147,-0.0144,-0.0141,-0.0105,-0.0096,-0.0029,-0.0104,0.0026,0.0029,0.0032,0.0134,0.0146,0.0155,0,0,0,0,0,0.0076,0.008,0.0064,0.005,-0.0014,-0.0058,-0.0067,-0.0125,-0.0149,-0.0144,-0.0144,-0.0145,-0.0078,-0.01,-0.0091,-0.0021,0.0024,0.0028,0.0032,0.0129,0.0143,0.0155,0,0,0,0,0,0,0.0123,0.0072,0.0052,0.0037,-0.0006,-0.0072,-0.0084,-0.0121,-0.0119,-0.012,-0.0125,-0.012,-0.0063,-0.0064,-0.009,0.0026,-0.0025,-0.0019,0.0046,0.0059,0.007,0.0094,-0.0101,0,0,0,0,0,0.0138,0.0138,0.0075,0.0062,0.0048,-0.0012,-0.0039,-0.0076,-0.0097,-0.01,-0.0099,-0.008,-0.0036,-0.0011,0.0014,0.0081,0.0062,0.013,0.0141,0.0151,0.0175,0.019,0.0204,0.0046,0.0046,0.0046,0,0,0.0145,0.0117,0.0112,0.0073,0.0041,0.0039,-0.0028,-0.0063,-0.0049,-0.0088,-0.0051,-0.0045,-0.0014,0.0056,0.0083,0.0064,0.018,0.0155,0.0164,0.0183,0.0195,0.0211,0.0225,0.0049,0.0049,0.0048,0,0,0.0167,0.0148,0.0161,0.014,0.0088,0.0063,0.0055,0.0002,0.0002,0.0023,0.0014,0.0062,0.0096,0.0151,0.0183,0.0272,0.023,0.0267,0.0359,0.0373,0.0386,0.0398,0.0372,0.0381,0.0282,0.0282,0.0282,0,0.0176,0.0191,0.0153,0.0162,0.0153,0.0084,0.0103,0.0098,0.0062,0.0099,0.0047,0.0139,0.016,0.0288,0.0313,0.0307,0.027,0.031,0.0388,0.0399,0.0409,0.038,0.0388,0.0288,0.0287,0.0287,0.0286,0,0.021,0.0224,0.0229,0.0238,0.0231,0.0227,0.0211,0.023,0.0215,0.0213,0.0297,0.0308,0.0369,0.0388,0.0381,0.0486,0.042,0.0392,0.0357,0.0432,0.0396,0.0402,0.0296,0.0294,0.0292,0.0291,0,0,0.0224,0.0253,0.0255,0.0286,0.0274,0.0274,0.0335,0.0381,0.044,0.0422,0.0503,0.058,0.0562,0.0596,0.0593,0.0614,0.0652,0.0532,0.053,0.051,0.0636,0.0609,0.0612,0.0615,0.0617,0.0619,0.0573,0,0.0264,0.0314,0.0322,0.0381,0.0409,0.0412,0.048,0.0517,0.0542,0.0601,0.0636,0.0691,0.0648,0.0671,0.0695,0.0656,0.0675,0.0664,0.0564,0.0561,0.0532,0.0623,0.06,0.056,0.0579,0.058,0.0581,0,0.0297,0.0333,0.0401,0.0484,0.05,0.0534,0.0646,0.0693,0.0779,0.0802,0.086,0.0841,0.0903,0.0824,0.0821,0.0797,0.0739,0.0694,0.0691,0.0641,0.0549,0.0492,0.057,0.0591,0.059,0.059,0.0589,0,0.0325,0.0393,0.0461,0.0476,0.0554,0.0617,0.0666,0.076,0.0827,0.0914,0.094,0.0994,0.0987,0.095,0.0848,0.0827,0.0792,0.0757,0.0687,0.0681,0.0637,0.0625,0.0771,0.0771,0.0771,0.0771,0.0771,0,0.0363,0.0415,0.0479,0.051,0.0615,0.0655,0.0776,0.0845,0.0938,0.1013,0.1026,0.1056,0.1007,0.0964,0.0886,0.0799,0.0825,0.0731,0.0692,0.0669,0.0661,0.0668,0.0657,0.0769,0.077,0.077,0.077,0,0.0377,0.0416,0.0494,0.0589,0.0625,0.0694,0.0811,0.0902,0.0972,0.106,0.1077,0.1094,0.1034,0.0968,0.0891,0.0836,0.0767,0.0728,0.0685,0.0645,0.0633,0.0628,0.0674,0.0673,0.0673,0.0672,0.0671,0,0.0391,0.0429,0.0531,0.0583,0.0626,0.0727,0.0809,0.0911,0.099,0.1067,0.1102,0.1073,0.105,0.0932,0.084,0.0735,0.0724,0.0653,0.0656,0.0679,0.0635,0.063,0.0626,0.0616,0.0615,0.0614,0.0614,0,0.0415,0.0445,0.0508,0.0606,0.0689,0.0791,0.0896,0.0956,0.1064,0.1108,0.1135,0.1115,0.1011,0.0897,0.0771,0.0699,0.0678,0.0636,0.0689,0.0651,0.0623,0.0579,0.0577,0.0607,0.0608,0.0608,0.0609,0.0609,0.0428,0.0468,0.0542,0.0639,0.0731,0.0837,0.0914,0.1001,0.1088,0.1152,0.1132,0.109,0.0987,0.0809,0.0696,0.0599,0.0628,0.0586,0.0589,0.0592,0.0601,0.0575,0.0549,0.0549,0.0549,0.055,0.055,0,0.0446,0.0494,0.0576,0.0686,0.0777,0.0833,0.0967,0.1028,0.1095,0.1137,0.1141,0.0993,0.0875,0.0755,0.0607,0.0532,0.0529,0.0494,0.0503,0.051,0.0516,0.0522,0.0447,0.0447,0.0446,0.0446,0,0,0.0457,0.0525,0.0565,0.0698,0.0778,0.0897,0.0968,0.1038,0.1093,0.1102,0.1074,0.1048,0.0903,0.0764,0.0643,0.0549,0.0556,0.053,0.0622,0.0655,0.0662,0.0577,0.0594,0,0,0,0,0]}],[{"header":{"parameterUnit":"m.s-1","parameterCategory":2,"la1":30.2991,"la2":30.254,"lo1":-89.0895,"lo2":-89.0444,"dy":0.0017,"dx":0.0017,"nx":28,"ny":28,"refTime":"2024-06-24T09:00:00:Z","depth":"4","parameterNumber":2,"parameterNumberName":"U-component_of_CURRENTS"},"data":[0,0,0,0,0,0,0,0,0,0,0,0,0,0,0,0,0,0,0,0,0,0,0,0,0,0,0,0,0,0,0,0,0,0,0,0,0,0,0,0,0,0,0,0,0,0,0,0,0,0,0,0,0,0,0,0,0,0,-0.0067,-0.0072,0,-0.0353,-0.0354,-0.0355,-0.0413,-0.0414,-0.0414,-0.0414,-0.0404,-0.0403,-0.0403,0,0,0,0,0,0,0,0,0,0,0,0,0,0.0578,0.0568,-0.0066,-0.0072,-0.0078,-0.0353,-0.0354,-0.0355,-0.0413,-0.0414,-0.0414,-0.0414,-0.0404,-0.0404,-0.0403,0,0,0,0,0,0,0,0,0,0,0,0,0,0.0321,0.0564,-0.0065,-0.016,-0.0173,-0.0352,-0.0354,-0.0356,-0.0413,-0.0414,-0.0414,-0.0414,-0.0404,-0.0404,-0.0403,-0.0391,0,0,-0.0401,-0.04,0,0,0,0,0,0,0,0,0.0335,0.03,-0.014,-0.0154,-0.017,-0.0371,-0.0125,-0.0362,-0.0413,-0.0294,-0.0414,-0.0415,-0.0383,-0.0384,-0.0403,-0.039,-0.039,-0.04,-0.04,-0.04,-0.0399,0,0,0,0,0,0,0,0.0353,0.0313,-0.0153,-0.0147,-0.0165,-0.014,-0.0175,-0.0168,-0.0306,-0.0304,-0.0316,-0.039,-0.0385,-0.0404,-0.0403,-0.039,-0.0401,-0.04,-0.0399,-0.0399,-0.0171,-0.0166,0,0,0,0,0,0,0.0325,0.0328,-0.0144,-0.0164,0.0057,-0.0153,-0.0191,-0.0284,-0.0313,-0.0329,-0.039,-0.0392,-0.0405,-0.0404,-0.0402,-0.0244,-0.04,-0.0399,-0.0399,-0.0177,-0.017,-0.0164,0,0,0,0,0,0,0.034,0.0285,-0.0133,0.0057,0.0002,-0.0168,-0.0269,-0.029,-0.032,-0.0387,-0.039,-0.0403,-0.0405,-0.0404,-0.0347,-0.0249,-0.0399,-0.0398,-0.0183,-0.0175,-0.0167,-0.0019,0,0,0,0,0,0,0.036,0.0293,0.027,0.0053,-0.0011,-0.0239,-0.0273,-0.0297,-0.0379,-0.0383,-0.0398,-0.0398,-0.0405,-0.0347,-0.0346,-0.0251,-0.0397,-0.0191,-0.018,-0.017,-0.0031,-0.0006,0.0015,0,0,0,0,0,0.0384,0.0283,0.0271,0.0215,-0.0056,-0.0243,-0.0268,-0.037,-0.0379,-0.0391,-0.0358,-0.0398,-0.0278,-0.0344,-0.0343,-0.0245,-0.0196,-0.0183,-0.017,-0.0041,-0.0011,0.0014,0,0,0,0,0,0,0.0539,0.0259,0.0242,0.0065,-0.0059,-0.0263,-0.032,-0.0367,-0.036,-0.034,-0.0356,-0.0352,-0.0256,-0.0268,-0.034,-0.0139,-0.0231,-0.0218,-0.0133,-0.0105,-0.0083,-0.0117,-0.0397,0,0,0,0,0,0.0565,0.0465,0.0211,0.0121,0.0013,-0.0126,-0.02,-0.0264,-0.0331,-0.0332,-0.0317,-0.0269,-0.0203,-0.0174,-0.0133,-0.005,-0.0086,0.0029,0.0052,0.007,0.0051,0.0174,0.0204,-0.0123,-0.0123,-0.0123,0,0,0.0626,0.0454,0.0411,0.0158,0.0043,-0.0077,-0.0166,-0.0298,-0.0295,-0.0324,-0.0255,-0.0205,-0.0164,-0.0048,-0.0003,-0.0048,0.013,0.0086,0.0102,0.007,0.019,0.0221,0.0249,-0.0114,-0.0116,-0.0117,0,0,0.0668,0.0506,0.0432,0.0283,0.0075,-0.0019,-0.0059,-0.023,-0.0215,-0.0162,-0.0141,-0.004,0.0035,0.01,0.014,0.0307,0.0242,0.0349,0.0435,0.0558,0.0584,0.0607,0.0517,0.0531,0.0366,0.0367,0.0367,0,0.076,0.0597,0.0402,0.0255,0.0144,0.0004,-0.0088,-0.0108,-0.0172,-0.0113,-0.0111,0.0064,0.0111,0.0243,0.0341,0.0354,0.0348,0.032,0.0583,0.0606,0.0627,0.053,0.0544,0.0375,0.0374,0.0374,0.0373,0,0.0714,0.0591,0.0501,0.0308,0.0195,0.0072,-0.0055,-0.0038,-0.0007,0.0019,0.0166,0.0235,0.034,0.0409,0.0436,0.0626,0.0539,0.0589,0.0499,0.0668,0.0554,0.0566,0.0388,0.0385,0.0382,0.038,0,0,0.0832,0.0547,0.0513,0.0447,0.0191,0.0089,0.0096,0.007,0.0128,0.0191,0.0314,0.0471,0.0517,0.0565,0.0611,0.0731,0.0881,0.0749,0.0751,0.0625,0.1017,0.0893,0.089,0.101,0.1016,0.102,0.0843,0,0.0861,0.0687,0.0524,0.0416,0.0283,0.0151,0.0186,0.0186,0.0232,0.0344,0.0446,0.0578,0.057,0.0658,0.078,0.0862,0.0934,0.0913,0.0898,0.0892,0.0742,0.0912,0.1037,0.0851,0.0853,0.0855,0.0856,0,0.0805,0.0704,0.0605,0.0462,0.0394,0.0368,0.0351,0.0363,0.0466,0.0518,0.0616,0.068,0.0814,0.0841,0.0953,0.0948,0.1003,0.104,0.1037,0.0876,0.0797,0.0674,0.0875,0.0874,0.0872,0.0871,0.087,0,0.0926,0.0725,0.0696,0.0605,0.0449,0.0469,0.0452,0.0478,0.0511,0.0637,0.0689,0.0805,0.0882,0.0981,0.1014,0.1034,0.1123,0.1151,0.1032,0.1013,0.1096,0.1074,0.1284,0.1284,0.1284,0.1285,0.1285,0,0.0909,0.0852,0.0771,0.0709,0.0715,0.0601,0.0655,0.0636,0.0701,0.0757,0.0808,0.0843,0.0963,0.1003,0.1038,0.1009,0.1119,0.1038,0.1016,0.1148,0.1136,0.1095,0.1076,0.1278,0.1279,0.1281,0.1282,0,0.0947,0.0891,0.082,0.0755,0.0734,0.0748,0.0697,0.0741,0.0784,0.0842,0.0889,0.092,0.0928,0.0934,0.1051,0.1004,0.1021,0.1001,0.099,0.0967,0.0787,0.0778,0.0815,0.081,0.0807,0.0803,0.0801,0,0.0929,0.0914,0.0857,0.0836,0.0794,0.0799,0.0792,0.0785,0.08,0.0852,0.0885,0.0925,0.0929,0.0878,0.0927,0.0862,0.0904,0.083,0.0955,0.0792,0.0766,0.0763,0.0759,0.0794,0.0794,0.0792,0.0791,0,0.0895,0.092,0.0887,0.0868,0.0848,0.0792,0.0796,0.0803,0.0815,0.0865,0.0865,0.0862,0.0846,0.0828,0.0775,0.0766,0.0841,0.079,0.08,0.0917,0.0768,0.0745,0.0746,0.0778,0.078,0.0781,0.0782,0,0.0894,0.0889,0.0896,0.0854,0.0843,0.079,0.0776,0.077,0.0774,0.083,0.0828,0.0834,0.0863,0.0775,0.0741,0.0691,0.0699,0.0688,0.0703,0.0718,0.0777,0.0579,0.0524,0,0,0,0,0,0.0863,0.0858,0.0853,0.0809,0.0819,0.0784,0.0763,0.0763,0.079,0.0773,0.0799,0.0777,0.0717,0.0708,0.0634,0.0673,0.0688,0.0581,0.0682,0.0704,0.0719,0.0802,0,0,0,0,0,0,0.084,0.0853,0.0845,0.0794,0.0766,0.0733,0.071,0.0714,0.0699,0.0743,0.0711,0.0738,0.0683,0.0769,0.0634,0.0623,0.0665,0.0578,0.0575,0.0695,0.0709,0.0721,0.0812,0,0,0,0,0]},{"header":{"parameterUnit":"m.s-1","parameterCategory":2,"la1":30.2991,"la2":30.254,"lo1":-89.0895,"lo2":-89.0444,"dy":0.0017,"dx":0.0017,"nx":28,"ny":28,"refTime":"2024-06-24T09:00:00:Z","depth":"4","parameterNumber":3,"parameterNumberName":"V-component_of_CURRENTS"},"data":[0,0,0,0,0,0,0,0,0,0,0,0,0,0,0,0,0,0,0,0,0,0,0,0,0,0,0,0,0,0,0,0,0,0,0,0,0,0,0,0,0,0,0,0,0,0,0,0,0,0,0,0,0,0,0,0,0,0,0.0421,0.0423,0,0.0498,0.0498,0.0498,0.0519,0.052,0.052,0.0521,0.0607,0.0608,0.061,0,0,0,0,0,0,0,0,0,0,0,0,0,0.0242,0.0245,0.0421,0.0423,0.0425,0.0498,0.0498,0.0498,0.0519,0.052,0.052,0.0521,0.0606,0.0608,0.061,0,0,0,0,0,0,0,0,0,0,0,0,0,0.0309,0.0245,0.0421,0.0452,0.0456,0.0498,0.0498,0.0498,0.0519,0.052,0.052,0.0521,0.0605,0.0608,0.0611,0.0612,0,0,0.0619,0.062,0,0,0,0,0,0,0,0,0.0306,0.0315,0.0446,0.045,0.0455,0.0509,0.0467,0.054,0.0519,0.0484,0.0521,0.0522,0.0581,0.0586,0.0583,0.0616,0.0619,0.0619,0.0621,0.0622,0.0623,0,0,0,0,0,0,0,0.0301,0.0311,0.0441,0.0448,0.0454,0.0446,0.0456,0.048,0.0519,0.0487,0.0491,0.0517,0.0583,0.0581,0.0586,0.0621,0.0619,0.0622,0.0623,0.0624,0.0711,0.0712,0,0,0,0,0,0,0.0315,0.0307,0.0439,0.0444,0.0393,0.045,0.046,0.0482,0.0519,0.0528,0.0516,0.0518,0.0576,0.0583,0.0589,0.0674,0.0622,0.0625,0.0626,0.071,0.0711,0.0712,0,0,0,0,0,0,0.0311,0.0326,0.0436,0.0386,0.0401,0.0453,0.0477,0.0484,0.0525,0.0543,0.055,0.0557,0.0577,0.0585,0.0653,0.0675,0.0626,0.0628,0.071,0.0711,0.0712,0.0792,0,0,0,0,0,0,0.0305,0.0324,0.0328,0.0387,0.0405,0.0466,0.0478,0.0485,0.0542,0.0545,0.058,0.0586,0.0578,0.065,0.0656,0.0678,0.063,0.0709,0.071,0.0711,0.0789,0.0796,0.0802,0,0,0,0,0,0.0298,0.0314,0.0328,0.0344,0.0415,0.0468,0.0474,0.0506,0.0544,0.0548,0.0599,0.0587,0.066,0.0654,0.0661,0.0684,0.0708,0.071,0.0711,0.0786,0.0795,0.0802,0,0,0,0,0,0,0.0244,0.0321,0.0336,0.0376,0.042,0.0475,0.0502,0.0534,0.0576,0.0619,0.0618,0.0627,0.0685,0.0676,0.0668,0.0707,0.0673,0.0676,0.0727,0.0736,0.0742,0.072,0.0633,0,0,0,0,0,0.0235,0.0257,0.0334,0.0358,0.0402,0.0461,0.0489,0.0537,0.0593,0.0614,0.0647,0.0678,0.0687,0.0711,0.0722,0.0765,0.0713,0.0774,0.0781,0.0787,0.0771,0.0712,0.0711,0.0717,0.0717,0.0717,0,0,0.0225,0.0265,0.0281,0.0346,0.0399,0.0465,0.0479,0.0569,0.0615,0.0621,0.0704,0.0717,0.0705,0.0743,0.0766,0.0748,0.0762,0.0788,0.0794,0.0774,0.0713,0.0712,0.0711,0.0718,0.0718,0.0718,0,0,0.022,0.0263,0.029,0.0353,0.0456,0.0493,0.0534,0.0635,0.067,0.0752,0.0757,0.0788,0.0831,0.0811,0.0804,0.0855,0.0801,0.0862,0.0883,0.0828,0.0826,0.0824,0.0777,0.077,0.0864,0.0864,0.0864,0,0.0203,0.0253,0.0302,0.0373,0.0435,0.0518,0.0593,0.0637,0.0741,0.0771,0.0795,0.0825,0.0848,0.0831,0.086,0.087,0.083,0.086,0.0835,0.0832,0.0829,0.078,0.0772,0.0868,0.0868,0.0867,0.0867,0,0.025,0.0295,0.0337,0.0436,0.0496,0.0587,0.0683,0.0742,0.0811,0.0854,0.0889,0.0893,0.0892,0.0907,0.0915,0.0893,0.0871,0.0854,0.0815,0.0833,0.0781,0.0771,0.0874,0.0873,0.0871,0.087,0,0,0.0217,0.0333,0.0355,0.0402,0.0559,0.0614,0.0704,0.0779,0.0817,0.0896,0.0906,0.0939,0.0942,0.0929,0.0915,0.0885,0.0865,0.0877,0.0872,0.0829,0.0744,0.0754,0.0743,0.0844,0.0843,0.0841,0.0725,0,0.024,0.0337,0.0399,0.0504,0.0582,0.068,0.0737,0.083,0.0875,0.0909,0.0914,0.0924,0.0943,0.0934,0.0914,0.0874,0.0837,0.0898,0.0732,0.0726,0.0733,0.0731,0.0836,0.0716,0.0714,0.0712,0.0711,0,0.0295,0.0342,0.0439,0.0537,0.0585,0.0648,0.0743,0.0806,0.0872,0.0909,0.091,0.0911,0.089,0.0893,0.0805,0.0844,0.0805,0.0766,0.076,0.0726,0.0716,0.0688,0.069,0.0692,0.0693,0.0695,0.0696,0,0.0271,0.0379,0.0433,0.0493,0.0619,0.066,0.0723,0.0814,0.086,0.0884,0.0897,0.0869,0.0843,0.0784,0.0757,0.0771,0.065,0.0646,0.0601,0.0601,0.059,0.0593,0.0559,0.0559,0.0559,0.056,0.056,0,0.0301,0.0351,0.042,0.0475,0.0543,0.0647,0.0708,0.0765,0.0823,0.0867,0.0879,0.0851,0.0816,0.0762,0.0728,0.0643,0.0619,0.0591,0.0566,0.0631,0.0639,0.0583,0.0587,0.0555,0.0556,0.0557,0.0558,0,0.03,0.0345,0.0414,0.0511,0.0545,0.0606,0.072,0.0756,0.0804,0.0834,0.084,0.0836,0.0766,0.072,0.062,0.0596,0.0515,0.0486,0.0565,0.0548,0.0505,0.0515,0.0399,0.0398,0.0398,0.0397,0.0397,0,0.0307,0.0341,0.0434,0.0474,0.0519,0.0605,0.0674,0.0757,0.0785,0.0813,0.0816,0.0764,0.0754,0.0608,0.0573,0.0476,0.0473,0.0425,0.0465,0.0499,0.0485,0.0496,0.0507,0.0396,0.0396,0.0395,0.0395,0,0.0317,0.0346,0.04,0.0477,0.0542,0.0613,0.0691,0.0707,0.0786,0.0806,0.0776,0.073,0.0655,0.0586,0.0524,0.0458,0.0456,0.0419,0.0419,0.0456,0.0493,0.0483,0.0494,0.0393,0.0393,0.0394,0.0394,0,0.0318,0.0348,0.0411,0.0482,0.0556,0.0611,0.0654,0.0689,0.073,0.0755,0.0733,0.0683,0.0661,0.0573,0.0513,0.0462,0.0442,0.0422,0.0422,0.0424,0.0488,0.0543,0.0422,0,0,0,0,0,0.0317,0.0351,0.0413,0.0491,0.056,0.0603,0.067,0.0702,0.0743,0.0719,0.0734,0.0672,0.059,0.0552,0.0495,0.0499,0.0436,0.043,0.0413,0.0381,0.0384,0.0459,0,0,0,0,0,0,0.0315,0.0369,0.0405,0.0483,0.0532,0.0608,0.0649,0.0678,0.0664,0.0687,0.0638,0.0645,0.056,0.0614,0.0485,0.0473,0.0452,0.0402,0.0401,0.038,0.0382,0.0384,0.0462,0,0,0,0,0]}]]